TimeEDT,TemperatureF,Dew PointF,Humidity,Sea Level PressureIn,VisibilityMPH,Wind Direction,Wind SpeedMPH,Gust SpeedMPH,PrecipitationIn,Events,Conditions,WindDirDegrees,DateUTC
12:54 AM,57.0,54.0,89,29.74,10.0,NW,4.6,-,N/A,,Overcast,320,2013-06-14 04:54:00
1:54 AM,55.9,54.0,93,29.74,10.0,WNW,3.5,-,N/A,,Overcast,300,2013-06-14 05:54:00
2:54 AM,55.9,53.1,90,29.75,10.0,West,4.6,-,N/A,,Overcast,270,2013-06-14 06:54:00
3:54 AM,55.0,53.1,93,29.76,10.0,Calm,Calm,-,N/A,,Overcast,0,2013-06-14 07:54:00
4:54 AM,53.1,52.0,96,29.76,8.0,WSW,4.6,-,N/A,Fog,Patches of Fog,250,2013-06-14 08:54:00
5:39 AM,53.6,51.8,94,29.79,6.0,West,5.8,-,N/A,,Mostly Cloudy,270,2013-06-14 09:39:00
5:44 AM,53.6,53.6,100,29.79,0.8,West,8.1,-,N/A,,Overcast,280,2013-06-14 09:44:00
5:54 AM,54.0,53.1,97,29.78,0.5,West,6.9,-,N/A,Fog,Fog,260,2013-06-14 09:54:00
6:44 AM,55.4,53.6,94,29.80,1.0,West,6.9,-,N/A,,Overcast,260,2013-06-14 10:44:00
6:49 AM,55.4,53.6,94,29.80,3.0,West,5.8,-,N/A,,Overcast,280,2013-06-14 10:49:00
6:54 AM,55.0,54.0,96,29.80,3.0,WSW,4.6,-,N/A,,Overcast,250,2013-06-14 10:54:00
7:54 AM,55.9,54.0,93,29.81,4.0,West,9.2,-,N/A,,Overcast,260,2013-06-14 11:54:00
8:04 AM,55.4,55.4,100,29.82,1.8,West,9.2,-,N/A,,Overcast,260,2013-06-14 12:04:00
8:54 AM,57.0,55.0,93,29.82,2.0,West,8.1,-,N/A,,Overcast,280,2013-06-14 12:54:00
9:26 AM,57.2,55.4,94,29.83,3.0,West,8.1,-,0.00,,Light Drizzle,280,2013-06-14 13:26:00
9:49 AM,60.8,55.4,82,29.84,10.0,WNW,8.1,-,0.00,,Overcast,300,2013-06-14 13:49:00
9:54 AM,61.0,55.9,83,29.83,10.0,WNW,8.1,-,0.00,,Overcast,300,2013-06-14 13:54:00
10:01 AM,60.8,55.4,82,29.84,10.0,WNW,8.1,-,N/A,,Overcast,290,2013-06-14 14:01:00
10:54 AM,63.0,55.9,78,29.84,10.0,NW,6.9,-,N/A,,Overcast,320,2013-06-14 14:54:00
11:01 AM,64.4,57.2,77,29.85,10.0,NW,9.2,-,N/A,,Mostly Cloudy,310,2013-06-14 15:01:00
11:42 AM,66.2,55.4,68,29.85,10.0,WNW,10.4,-,N/A,,Mostly Cloudy,290,2013-06-14 15:42:00
11:54 AM,66.9,55.9,68,29.85,10.0,NW,11.5,-,N/A,,Mostly Cloudy,310,2013-06-14 15:54:00
12:54 PM,70.0,57.9,65,29.86,10.0,WNW,12.7,18.4,N/A,,Mostly Cloudy,300,2013-06-14 16:54:00
1:54 PM,71.1,57.0,61,29.86,10.0,NW,12.7,24.2,N/A,,Scattered Clouds,310,2013-06-14 17:54:00
2:54 PM,72.0,57.0,59,29.86,10.0,WNW,15.0,24.2,N/A,,Scattered Clouds,300,2013-06-14 18:54:00
3:54 PM,72.0,57.0,59,29.87,10.0,WNW,12.7,20.7,N/A,,Scattered Clouds,300,2013-06-14 19:54:00
4:54 PM,72.0,57.0,59,29.87,10.0,WNW,12.7,-,N/A,,Scattered Clouds,300,2013-06-14 20:54:00
5:54 PM,72.0,57.0,59,29.88,10.0,NW,15.0,-,N/A,,Scattered Clouds,310,2013-06-14 21:54:00
6:54 PM,70.0,55.9,61,29.88,10.0,WNW,15.0,-,N/A,,Partly Cloudy,290,2013-06-14 22:54:00
7:54 PM,69.1,55.0,61,29.89,10.0,WNW,11.5,-,N/A,,Partly Cloudy,290,2013-06-14 23:54:00
8:54 PM,64.9,54.0,68,29.90,10.0,West,9.2,-,N/A,,Scattered Clouds,280,2013-06-15 00:54:00
9:54 PM,63.0,54.0,72,29.92,10.0,WNW,6.9,-,N/A,,Scattered Clouds,300,2013-06-15 01:54:00
10:54 PM,61.0,53.1,75,29.92,10.0,WNW,4.6,-,N/A,,Scattered Clouds,290,2013-06-15 02:54:00
11:54 PM,59.0,52.0,78,29.93,10.0,WSW,3.5,-,N/A,,Scattered Clouds,250,2013-06-15 03:54:00